Theta_e
337 342 347 348 345 344 345 343 344 345 341 342 343 342 340 340 340 340 339 339 338 338 338 338 337 337 337 337 336 335 334 333 332 334 337 339 341 342 341 339 339 336 340
340 344 345 347 347 343 345 344 344 343 342 340 341 340 340 339 339 338 338 338 338 338 337 337 337 337 337 337 336 335 335 333 331 330 331 338 341 341 339 337 338 335 340
340 343 344 345 345 345 344 344 343 342 341 340 340 338 339 338 338 338 337 338 338 337 337 337 337 338 337 337 336 335 334 332 330 333 335 332 335 338 338 337 338 339 339
341 342 342 343 345 344 344 343 343 342 341 338 339 337 337 337 338 338 338 338 337 336 337 337 337 337 338 337 337 336 334 332 333 335 333 335 334 339 340 339 339 339 338
340 342 342 342 344 344 343 343 342 342 339 337 337 337 336 337 337 337 337 336 336 336 337 337 337 338 338 338 337 336 334 334 336 333 331 332 332 337 339 338 337 336 335
339 341 340 343 344 344 343 342 342 342 339 338 338 337 336 337 336 337 336 336 336 336 337 337 337 338 338 337 337 335 334 335 336 332 332 334 332 338 338 337 335 333 332
338 341 340 342 343 343 342 342 341 341 340 338 337 338 337 336 336 335 335 335 336 336 336 336 337 338 338 337 336 334 334 334 331 331 331 330 331 336 337 335 334 332 329
337 340 340 337 339 340 341 340 340 340 340 336 337 339 336 336 336 336 335 335 335 336 336 337 338 338 337 336 335 333 332 331 331 330 329 328 334 334 335 334 332 329 326
337 338 339 339 337 335 336 337 338 338 338 338 336 334 336 333 338 336 336 335 335 336 337 337 337 337 335 334 333 332 330 330 327 328 328 325 332 329 332 332 329 326 323
334 335 337 338 338 337 335 332 333 335 335 336 331 333 331 331 333 333 332 334 335 336 336 335 336 334 334 333 332 330 328 328 327 326 325 326 331 329 331 330 327 325 322
331 332 336 337 337 337 335 330 329 331 331 331 330 328 328 330 329 328 328 332 335 335 335 336 335 332 331 329 329 328 328 325 325 324 321 329 327 328 329 328 326 323 321
328 329 332 336 336 336 336 332 332 331 330 330 330 328 329 326 326 327 324 328 330 331 335 334 333 329 326 323 322 324 325 323 322 321 320 327 326 325 328 327 325 322 320
329 330 330 333 335 335 334 333 333 329 327 326 327 328 324 325 324 325 323 324 324 326 327 326 325 324 322 321 322 323 321 318 315 314 317 324 324 325 328 326 323 320 318
328 329 328 328 330 334 335 333 331 327 324 324 323 325 323 324 323 325 327 327 328 327 330 327 320 319 319 321 321 319 318 316 313 313 315 320 324 326 327 325 322 319 316
326 327 326 325 331 334 333 332 330 326 324 322 325 324 325 324 324 326 330 332 331 332 327 319 317 316 318 319 318 316 315 314 313 312 310 315 323 325 325 323 320 318 314
327 327 327 328 330 333 331 331 330 326 324 322 324 324 326 325 326 328 328 327 326 327 324 316 314 315 316 314 313 313 312 312 312 311 307 308 315 318 319 319 317 314 313
326 328 329 329 330 331 330 331 329 326 324 321 322 324 326 327 327 329 324 322 322 320 313 312 311 314 310 310 308 307 307 308 309 309 307 304 303 309 312 313 312 311 310
327 327 329 331 331 331 330 329 328 323 322 321 323 325 327 327 328 323 321 318 320 317 313 310 310 308 307 305 303 303 303 304 305 304 303 302 300 299 303 306 306 306 306
326 326 328 330 331 330 329 327 323 321 321 321 323 325 328 327 326 322 317 316 319 316 313 310 308 307 303 302 301 300 300 300 302 301 296 294 295 294 293 298 299 300 301
326 327 328 328 328 328 328 324 322 321 321 321 322 323 326 326 322 318 313 312 314 313 310 308 306 305 302 300 299 297 297 299 299 296 294 293 291 291 289 289 289 290 295
325 325 327 326 327 326 323 320 320 319 319 320 322 324 326 323 317 312 311 309 310 309 307 307 305 300 297 296 295 294 294 296 296 294 293 291 290 290 288 288 286 286 287
324 325 326 326 327 326 323 322 320 322 322 323 322 323 322 319 314 311 309 308 307 306 306 306 302 297 296 297 295 293 289 290 293 294 293 292 289 289 288 287 286 286 285
323 324 324 326 326 326 325 324 323 322 319 317 316 316 314 313 309 307 307 307 307 305 304 305 301 299 295 296 297 297 293 291 290 292 291 291 289 288 287 287 286 285 284
323 325 324 325 326 326 326 323 321 319 317 316 316 311 308 308 305 304 304 304 305 304 304 303 303 300 299 296 298 300 297 294 290 286 290 290 289 289 287 286 285 284 284
323 324 325 325 325 326 326 323 320 318 316 313 311 308 303 301 301 301 301 302 302 303 303 303 301 300 300 298 296 294 293 292 292 289 286 286 288 287 287 286 285 284 284
322 323 324 324 323 324 324 323 320 317 314 312 310 305 301 298 297 298 298 300 299 299 300 300 299 299 296 295 295 292 291 289 289 289 287 285 285 286 287 286 285 284 284
Wind_Speed
16 16 21 21 21 19 18 17 16 15 15 17 16 17 16 16 16 16 16 16 16 15 15 14 14 14 14 13 13 12 12 11 9 8 9 11 13 11 13 15 14 10 14
20 18 20 21 20 20 18 18 15 15 15 16 16 16 15 16 15 15 15 15 15 15 14 14 13 13 13 12 11 11 10 8 4 1 3 9 15 16 15 14 11 11 16
20 19 17 20 20 19 17 18 17 15 15 16 15 15 16 15 15 15 14 14 14 14 13 13 13 12 12 11 10 9 8 4 1 5 6 3 7 14 15 15 13 17 17
19 18 17 19 20 19 19 17 18 16 16 16 15 15 16 15 14 14 13 13 14 13 13 12 12 11 11 11 10 9 5 2 4 6 3 9 10 14 17 18 19 20 21
18 16 16 19 20 19 19 17 18 15 16 16 15 16 15 14 13 13 13 13 12 12 12 11 11 10 10 10 8 7 3 5 8 5 9 6 7 13 17 19 18 21 20
18 16 18 20 21 19 19 17 17 16 16 16 16 15 15 14 13 12 12 12 11 11 11 10 10 9 9 9 7 5 4 7 8 9 9 11 6 17 19 19 19 20 22
16 17 17 19 20 20 19 17 16 16 16 16 16 15 15 14 12 12 12 10 10 11 10 9 9 8 8 8 6 3 6 9 9 9 11 7 8 16 18 18 19 21 20
15 17 16 16 17 19 18 17 16 16 15 17 16 14 15 14 13 12 11 10 9 10 9 8 7 8 10 7 4 2 4 7 8 11 10 5 12 15 15 16 20 20 20
17 14 14 14 14 14 14 14 14 14 15 14 15 15 13 14 11 11 10 9 9 9 8 7 6 11 10 7 4 0 2 11 8 7 9 4 11 13 14 18 17 19 17
14 15 14 13 13 12 10 12 12 12 13 13 16 12 10 12 10 9 9 7 9 8 8 6 7 10 9 6 3 2 7 10 9 8 6 5 12 12 14 16 15 17 15
12 13 15 14 13 13 10 9 10 12 11 9 11 11 8 5 6 7 6 9 8 7 6 6 10 9 8 6 3 1 6 5 7 6 3 10 11 11 12 15 15 15 14
15 12 14 15 14 13 10 10 7 8 6 5 6 6 5 6 6 7 8 9 9 7 8 8 9 10 7 3 2 2 6 9 7 6 4 9 10 9 11 14 15 13 12
15 11 14 14 15 13 11 8 5 4 5 4 7 7 6 5 4 5 4 4 4 6 4 5 4 3 2 4 2 4 9 8 5 4 6 7 8 9 13 13 15 14 11
15 13 12 12 13 13 9 8 7 5 4 5 5 8 4 4 4 4 5 5 5 4 5 4 3 4 4 5 6 6 7 7 5 4 7 10 6 11 12 14 12 12 9
11 9 6 6 10 12 12 9 8 6 4 5 6 7 5 5 5 4 6 5 4 5 4 5 5 4 4 6 6 7 6 8 9 5 4 14 12 12 14 13 11 11 7
13 12 9 6 8 13 11 11 9 7 6 4 5 5 6 5 5 3 5 4 3 4 4 5 5 4 5 5 6 6 6 6 8 8 5 7 15 13 13 12 9 7 8
15 15 15 11 7 11 12 11 8 7 6 5 5 7 6 6 6 8 6 4 4 4 7 5 4 5 5 5 6 5 5 5 5 8 6 5 7 14 11 10 10 8 7
14 16 15 11 10 12 11 10 8 7 6 5 5 5 7 6 6 8 6 4 5 5 5 4 4 5 5 5 4 4 4 4 5 6 5 5 4 5 7 10 9 8 7
15 15 17 13 12 13 12 10 7 7 6 5 5 5 10 7 9 8 6 5 5 4 5 5 3 5 5 5 5 4 4 3 4 4 6 6 6 5 3 7 8 7 6
16 16 16 14 11 10 9 9 7 7 5 5 5 5 7 6 8 7 5 5 5 4 4 4 5 3 4 4 6 4 3 2 4 4 5 4 3 5 5 5 4 3 5
16 16 16 17 14 10 8 9 8 8 7 4 5 8 7 9 8 6 5 6 5 5 5 6 4 6 3 5 5 2 1 2 2 4 4 4 4 4 4 3 2 2 2
17 18 17 17 15 14 10 9 7 7 4 3 4 5 8 9 8 7 7 7 6 6 6 6 7 4 3 5 4 3 3 2 2 4 4 5 6 4 4 4 4 3 2
19 18 16 18 17 14 13 9 9 5 4 3 4 4 5 8 7 7 7 7 8 6 7 8 7 6 4 5 6 4 3 4 3 2 5 4 5 4 5 5 5 5 4
19 16 16 17 18 16 15 11 14 12 9 4 6 4 4 7 7 6 6 6 7 5 7 7 6 4 5 5 2 4 2 2 3 1 2 4 5 6 6 5 5 6 6
19 18 16 16 16 16 15 12 10 11 8 5 4 8 5 5 6 6 6 6 6 4 6 7 6 6 4 4 3 2 1 1 1 2 3 3 3 4 5 6 5 5 6
17 17 15 16 16 16 17 15 15 14 12 9 9 8 7 4 4 7 7 6 6 5 6 5 5 6 4 3 3 4 4 4 3 3 3 3 4 4 5 5 5 5 5
Wind_Direction
144 146 152 146 146 148 145 145 138 136 139 139 132 125 127 122 118 113 109 108 104 102 97 92 89 85 81 79 78 78 76 72 69 73 76 69 46 64 59 45 46 45 46
133 145 150 147 147 151 149 143 140 142 146 145 139 132 130 128 122 116 112 111 108 102 98 96 91 87 83 81 78 75 73 68 57 67 97 81 62 69 61 58 58 62 64
134 142 150 148 149 148 145 142 144 145 148 148 145 138 133 128 121 118 118 115 108 104 101 97 92 86 80 78 79 76 71 63 353 331 324 166 78 66 68 69 64 68 69
141 145 149 149 148 147 146 147 145 152 158 151 145 143 139 131 131 125 121 114 109 109 105 99 91 87 82 79 84 79 65 353 344 339 20 69 73 68 79 73 70 73 68
138 152 145 150 148 148 147 151 149 156 153 152 149 144 143 137 133 128 126 116 114 109 104 97 92 87 86 87 81 79 33 350 328 350 71 55 67 77 75 78 74 70 67
145 148 143 150 149 150 148 153 149 152 154 153 154 149 142 143 139 137 124 116 114 106 99 95 94 90 87 85 78 55 354 344 333 88 78 70 69 80 82 83 81 75 69
151 140 146 151 152 150 152 153 153 152 157 159 154 154 149 146 144 136 124 122 116 105 101 103 101 96 90 87 82 46 4 355 81 82 80 69 79 81 80 82 81 73 70
126 144 147 148 152 151 154 155 157 155 156 159 158 156 152 149 149 139 130 127 116 108 110 115 121 114 99 86 82 48 10 7 85 88 83 71 75 76 79 88 84 78 70
131 142 147 152 151 150 154 156 157 158 153 156 160 161 152 156 133 137 131 133 122 116 120 112 95 97 94 92 96 24 25 68 84 86 91 72 82 83 90 95 89 81 76
137 146 153 157 155 156 159 151 152 152 156 159 168 148 149 160 132 127 127 135 124 121 121 116 100 100 102 106 144 217 63 78 88 89 79 80 81 90 96 97 94 90 76
148 163 158 161 164 159 161 156 147 145 143 139 134 134 137 135 152 150 152 133 118 118 130 138 117 124 121 128 175 199 65 93 86 85 78 91 92 101 105 105 97 89 84
162 180 166 163 167 163 159 153 153 146 142 145 139 154 170 162 173 160 135 129 129 135 126 131 148 156 159 149 185 258 104 89 75 71 43 94 101 107 111 111 102 87 79
168 183 170 166 168 164 154 156 155 153 156 161 163 169 207 153 144 132 132 141 155 160 159 155 162 194 145 135 129 80 110 91 83 60 25 48 108 116 108 115 102 88 73
177 185 177 169 168 159 146 149 152 164 167 161 167 181 203 137 151 162 153 175 173 168 166 144 95 96 66 71 89 87 91 108 96 62 29 23 66 100 124 115 102 92 77
178 165 195 173 141 144 147 148 154 165 191 165 164 189 165 151 169 196 172 152 137 143 135 106 120 106 102 82 69 76 74 98 101 91 54 43 64 105 111 102 92 83 83
174 175 190 211 151 148 149 153 159 173 178 166 160 179 170 176 173 154 105 107 145 118 102 120 125 125 92 86 79 75 76 85 116 110 84 57 65 75 82 82 83 88 78
175 173 183 198 163 148 154 153 171 177 164 169 161 177 190 182 179 131 126 132 112 99 98 96 111 103 96 89 92 87 88 90 105 128 131 104 67 63 79 94 92 86 79
176 174 179 189 184 161 156 162 176 176 160 167 161 162 182 193 166 118 128 146 130 123 127 134 132 112 115 118 120 111 96 85 86 83 94 110 126 94 77 91 90 88 80
181 177 179 187 179 171 164 168 174 167 156 167 169 167 177 185 126 126 133 152 148 143 140 150 133 133 134 125 118 96 94 96 111 86 77 79 97 119 112 104 92 81 76
179 183 175 184 177 165 164 166 175 164 164 168 177 172 162 130 122 123 135 143 136 139 136 125 127 113 123 132 107 95 116 140 122 124 129 117 120 130 153 157 142 105 92
184 180 183 178 176 169 171 173 176 168 175 172 167 158 138 133 130 138 141 144 144 149 148 135 117 119 94 122 108 81 64 139 138 139 143 148 160 163 158 151 147 155 164
184 190 185 181 179 180 178 181 173 168 166 140 136 136 127 135 141 149 159 163 157 143 144 145 138 136 123 181 150 143 172 284 246 193 179 179 183 166 183 184 159 176 183
185 192 191 183 182 183 182 176 165 137 112 113 127 114 126 136 147 161 165 156 159 149 160 161 155 151 149 211 223 162 147 214 151 195 208 200 179 182 192 194 190 198 200
183 190 192 186 182 184 185 185 172 169 168 161 162 145 150 138 150 162 156 156 161 148 161 164 166 163 142 176 221 229 188 126 165 206 245 215 199 205 199 204 199 202 201
179 184 195 192 184 181 182 183 175 181 172 145 154 151 141 139 152 159 156 160 152 152 154 163 165 177 173 154 163 113 111 267 246 148 212 251 249 221 209 203 199 202 205
180 180 191 194 190 187 184 190 181 182 174 163 172 165 165 158 159 159 152 158 145 145 152 162 162 174 179 136 155 159 168 168 200 190 211 205 204 232 210 210 206 205 206